Home > Weather > Houston > Past weeks

Flag for U.S.A. Weather for the Past 2 Weeks in Houston, Texas, U.S.A.

Now
58 °F

Mostly cloudy.


Feels Like: 58 °F
Forecast: 62 / 74 °F
Wind: No wind

Location: Houston Hobby Airport

Current Time: Feb 14, 2016 at 4:19:03 AM

Latest Report: Feb 14, 2016 at 3:53 AM


Visibility: 9 mi

Pressure: 30.11 "Hg

Humidity: 93%

Dew point: 56 °F

Location of HoustonLocation

Historic Weather in Houston — Graph

°F

Houston Temperature Yesterday

Maximum temperature yesterday: 67 °F (at 1:53 PM)
Minimum temperature yesterday: 56 °F (at 1:53 AM)
Average temperature yesterday: 61 °F

High & Low Weather Summary for the Past Weeks

 TemperatureHumidityPressure
High79 °F (Feb 12, 3:53 PM)100% (Jan 30, 7:53 AM)30.51 "Hg (Jan 30, 7:53 AM)
Low37 °F (Feb 5, 6:53 AM)10% (Feb 8, 4:53 PM)29.62 "Hg (Feb 2, 12:53 AM)
Average58 °F58%30.17 "Hg
* Reported Jan 30 2:53 AM — Feb 14 2:53 AM, Houston, Weather by CustomWeather, © 2016

Note: Actual official high and low records may vary slightly from our data, if they occured in-between our weather recording intervals... More about our weather records

Advertising

Houston Weather History for the Previous 24 Hours

 ConditionsComfort  
Time TempWeatherWind HumidityBarometerVisibility
2:53 AM
Sun, Feb 14
57 °FPassing clouds.5 mph93%30.12 "Hg10 mi
1:53 AM57 °FPassing clouds.3 mph93%30.15 "Hg10 mi
12:53 AM58 °FPassing clouds.5 mph90%30.17 "Hg10 mi
11:53 PM
Sat, Feb 13
58 °FPassing clouds.5 mph90%30.20 "Hg10 mi
10:53 PM59 °FPartly cloudy.6 mph87%30.22 "Hg10 mi
9:53 PM59 °FPartly cloudy.6 mph84%30.24 "Hg10 mi
8:53 PM59 °FPartly cloudy.9 mph81%30.24 "Hg10 mi
7:53 PM60 °FPassing clouds.10 mph78%30.27 "Hg10 mi
6:53 PM60 °FPassing clouds.12 mph78%30.27 "Hg10 mi
5:53 PM61 °FPartly sunny.10 mph72%30.27 "Hg10 mi
4:53 PM63 °FPartly sunny.12 mph68%30.28 "Hg10 mi
3:53 PM65 °FScattered clouds.14 mph66%30.28 "Hg10 mi
2:53 PM66 °FScattered clouds.12 mph63%30.30 "Hg10 mi
1:53 PM67 °FScattered clouds.10 mph59%30.32 "Hg10 mi
12:53 PM66 °FPartly sunny.10 mph61%30.35 "Hg10 mi
11:53 AM65 °FPartly sunny.12 mph61%30.37 "Hg10 mi
10:53 AM65 °FScattered clouds.14 mph61%30.38 "Hg10 mi
9:53 AM63 °FScattered clouds.14 mph58%30.39 "Hg10 mi
8:53 AM61 °FScattered clouds.10 mph67%30.38 "Hg10 mi
7:53 AM59 °FPartly sunny.8 mph81%30.36 "Hg10 mi
6:53 AM58 °FPassing clouds.6 mph87%30.35 "Hg10 mi
5:53 AM59 °FPartly cloudy.5 mph90%30.33 "Hg10 mi
4:53 AM61 °FPassing clouds.No wind83%30.31 "Hg10 mi
Weather by CustomWeather, © 2016

See weather overviewHow to use our weather pages